Home > Weather > Austin > Past weeks

Flag for U.S.A. Weather for the Past 2 Weeks in Austin, Texas, U.S.A.

Now
53 °F

Sunny.


Feels Like: 50 °F
Forecast: 44 / 61 °F
Wind: 10 mph from North

Location: Camp Mabry / Austin City

Current Time: Feb 8, 2016 at 11:06:19 AM

Latest Report: Feb 8, 2016 at 9:51 AM


Visibility: 10 mi

Pressure: 30.44 "Hg

Humidity: 25%

Dew point: 18 °F

Location of AustinLocation

Historic Weather in Austin — Graph

°F

Austin Temperature Yesterday

Maximum temperature yesterday: 67 °F (at 3:51 PM)
Minimum temperature yesterday: 32 °F (at 4:51 AM)
Average temperature yesterday: 49 °F

High & Low Weather Summary for the Past Weeks

 TemperatureHumidityPressure
High85 °F (Jan 31, 2:51 PM)100% (Feb 1, 6:51 AM)30.54 "Hg (Feb 1, 6:51 AM)
Low32 °F (Feb 7, 4:51 AM)17% (Jan 31, 3:51 PM)29.52 "Hg (Feb 1, 6:51 PM)
Average55 °F53%30.10 "Hg
* Reported Jan 24 9:51 AM — Feb 8 9:51 AM, Austin, Weather by CustomWeather, © 2016

Note: Actual official high and low records may vary slightly from our data, if they occured in-between our weather recording intervals... More about our weather records

Advertising

Austin Weather History for the Previous 24 Hours

 ConditionsComfort  
Time TempWeatherWind HumidityBarometerVisibility
9:51 AM
Mon, Feb 8
53 °FSunny.10 mph25%30.44 "Hg10 mi
8:51 AM50 °FSunny.10 mph27%30.43 "Hg10 mi
7:51 AM47 °FSunny.6 mph32%30.40 "Hg10 mi
6:51 AM47 °FClear.7 mph33%30.37 "Hg10 mi
5:51 AM47 °FClear.8 mph41%30.34 "Hg10 mi
4:51 AM49 °FClear.12 mph41%30.28 "Hg10 mi
3:51 AM51 °FClear.15 mph41%30.25 "Hg10 mi
2:51 AM51 °FClear.10 mph46%30.23 "Hg10 mi
1:51 AM49 °FClear.7 mph55%30.22 "Hg10 mi
12:51 AM49 °FClear.5 mph52%30.21 "Hg10 mi
11:51 PM
Sun, Feb 7
47 °FClear.5 mph56%30.19 "Hg10 mi
10:51 PM49 °FClear.No wind52%30.16 "Hg10 mi
9:51 PM51 °FClear.No wind48%30.15 "Hg10 mi
8:51 PM53 °FClear.3 mph45%30.16 "Hg10 mi
7:51 PM57 °FClear.3 mph39%30.15 "Hg10 mi
6:51 PM59 °FClear.5 mph36%30.13 "Hg10 mi
5:51 PM62 °FSunny.6 mph32%30.12 "Hg10 mi
4:51 PM66 °FSunny.7 mph29%30.11 "Hg10 mi
3:51 PM67 °FSunny.7 mph27%30.10 "Hg10 mi
2:51 PM66 °FSunny.8 mph28%30.12 "Hg10 mi
1:51 PM65 °FSunny.12 mph29%30.12 "Hg10 mi
12:51 PM63 °FSunny.8 mph34%30.20 "Hg10 mi
11:51 AM59 °FSunny.7 mph42%30.26 "Hg10 mi
Weather by CustomWeather, © 2016

See weather overviewHow to use our weather pages